Ramona, CA

11:16 PM PDT on May 25, 2018 (GMT -0700)
Ramona

Weather History for KRNM - June, 2013

Change the Weather History Date:

Friday, June 14, 2013

  Actual Average Record
Temperature  
Mean Temperature 68 °F 67 °F  
Max Temperature 82 °F 82 °F 99 °F (1979)
Min Temperature 54 °F 51 °F 41 °F (1980)
Degree Days  
Heating Degree Days 0 1  
Month to date heating degree days 2 20  
Since 1 June heating degree days 2 20  
Since 1 July heating degree days 2344 2544  
Cooling Degree Days 3 2  
Month to date cooling degree days 32 23  
Year to date cooling degree days 80 50  
Since 1 June cooling degree days 32 23  
Growing Degree Days 16 (Base 50)    
Moisture  
Dew Point 54 °F    
Average Humidity 71    
Maximum Humidity 100    
Minimum Humidity 42    
Precipitation  
Precipitation 0.00 in 0.00 in 0.03 in (2009)
Month to date precipitation 0.00 0.09  
Year to date precipitation 4.50 11.30  
Since 1 July precipitation 8.14  
Snow  
Snow 0.00 in - - ()
Month to date snowfall 0.0  
Year to date snowfall 0.0  
Snow Depth 0.00 in    
Sea Level Pressure  
Sea Level Pressure 29.90 in    
Wind  
Wind Speed 5 mph (West)    
Max Wind Speed 15 mph    
Max Gust Speed 24 mph    
Visibility 4 miles    
Events Fog    
T = Trace of Precipitation, MM = Missing Value Source: NWS Daily Summary

Daily Weather History Graph

Daily Weather History Graph

Search for Another Location

Airport or City:

Astronomy

Jun. 14, 2013 Rise Set
Actual Time 5:38 AM PDT 7:57 PM PDT
Civil Twilight 5:09 AM PDT 8:26 PM PDT
Nautical Twilight 4:34 AM PDT 9:01 PM PDT
Astronomical Twilight 3:56 AM PDT 9:39 PM PDT
Moon 11:02 AM PDT (6/14) 11:53 PM PDT (6/14)
Length of Visible Light 15h 16m
Length of Day
14h 19m
Waxing Crescent, 31% of the Moon is Illuminated
Jun 14
Waxing Crescent
Jun 16
First Quarter
Jun 23
Full
Jun 29
Last Quarter
Jul 8
New

Hourly Weather History & Observations

Time (PDT) Temp. Heat Index Dew Point Humidity Pressure Visibility Wind Dir Wind Speed Gust Speed Precip Events Conditions
12:12 AM 55.4 °F - 51.8 °F 88% 29.95 in 7.0 mi West 4.6 mph - N/A   Scattered Clouds
12:21 AM 55.4 °F - 53.6 °F 94% 29.94 in 6.0 mi WNW 3.5 mph - N/A   Mostly Cloudy
12:35 AM 55.4 °F - 55.4 °F 100% 29.94 in 1.8 mi WNW 3.5 mph - N/A   Overcast
12:51 AM 55.4 °F - 55.4 °F 100% 29.93 in 0.8 mi WSW 3.5 mph - N/A   Mist
12:53 AM 55.9 °F - 55.0 °F 97% 29.90 in 0.8 mi Calm Calm - N/A   Mist
1:28 AM 55.4 °F - 53.6 °F 94% 29.93 in 1.2 mi Calm Calm - N/A   Overcast
1:48 AM 55.4 °F - 53.6 °F 94% 29.92 in 1.0 mi Calm Calm - N/A   Overcast
1:53 AM 55.0 °F - 54.0 °F 96% 29.89 in 1.0 mi Calm Calm - N/A   Overcast
2:02 AM 55.4 °F - 53.6 °F 94% 29.92 in 1.2 mi Calm Calm - N/A   Overcast
2:21 AM 55.4 °F - 53.6 °F 94% 29.92 in 0.8 mi ESE 3.5 mph - N/A   Overcast
2:33 AM 55.4 °F - 53.6 °F 94% 29.92 in 0.2 mi Calm Calm - N/A Fog Fog
2:53 AM 55.0 °F - 54.0 °F 96% 29.88 in 0.2 mi East 3.5 mph - N/A Fog Fog
3:08 AM 55.4 °F - 53.6 °F 94% 29.91 in 0.5 mi Calm Calm - N/A Fog Fog
3:30 AM 55.4 °F - 53.6 °F 94% 29.91 in 0.2 mi Calm Calm - N/A Fog Fog
3:39 AM 55.4 °F - 53.6 °F 94% 29.91 in 0.5 mi South 4.6 mph - N/A Fog Fog
3:53 AM 55.0 °F - 54.0 °F 96% 29.88 in 0.8 mi Calm Calm - N/A   Mist
4:27 AM 55.4 °F - 53.6 °F 94% 29.91 in 1.0 mi SE 3.5 mph - N/A   Mist
4:40 AM 55.4 °F - 53.6 °F 94% 29.91 in 0.8 mi Calm Calm - N/A   Mist
4:46 AM 55.4 °F - 55.4 °F 100% 29.91 in 1.2 mi Calm Calm - N/A   Overcast
4:50 AM 55.4 °F - 55.4 °F 100% 29.91 in 0.8 mi Calm Calm - N/A   Mist
4:53 AM 55.0 °F - 54.0 °F 96% 29.88 in 0.8 mi Calm Calm - N/A   Mist
5:11 AM 55.4 °F - 53.6 °F 94% 29.92 in 0.8 mi Calm Calm - N/A   Mist
5:53 AM 55.0 °F - 54.0 °F 96% 29.89 in 0.2 mi Calm Calm - N/A Fog Fog
6:36 AM 55.4 °F - 55.4 °F 100% 29.93 in 0.5 mi Calm Calm - N/A Fog Fog
6:53 AM 55.0 °F - 54.0 °F 96% 29.90 in 0.5 mi Calm Calm - N/A Fog Fog
7:16 AM 55.4 °F - 53.6 °F 94% 29.93 in 1.0 mi Calm Calm - N/A   Overcast
7:32 AM 55.4 °F - 53.6 °F 94% 29.93 in 2.0 mi Calm Calm - N/A   Overcast
7:42 AM 55.4 °F - 53.6 °F 94% 29.93 in 3.0 mi Calm Calm - N/A   Overcast
7:53 AM 55.9 °F - 54.0 °F 93% 29.91 in 4.0 mi Calm Calm - N/A   Overcast
8:25 AM 57.2 °F - 53.6 °F 88% 29.93 in 5.0 mi Calm Calm - N/A   Overcast
8:53 AM 60.1 °F - 54.0 °F 80% 29.91 in 6.0 mi NW 3.5 mph - N/A   Haze
9:53 AM 68.0 °F - 55.0 °F 63% 29.90 in 10.0 mi Variable 4.6 mph - N/A   Haze
10:53 AM 73.0 °F - 55.0 °F 53% 29.89 in 10.0 mi NW 8.1 mph - N/A   Clear
11:53 AM 77.0 °F - 55.0 °F 47% 29.88 in 10.0 mi NW 9.2 mph - N/A   Clear
12:53 PM 80.1 °F 80.1 °F 55.0 °F 42% 29.87 in 10.0 mi Variable 6.9 mph 18.4 mph N/A   Clear
1:53 PM 79.0 °F - 54.0 °F 42% 29.86 in 10.0 mi WNW 11.5 mph 17.3 mph N/A   Clear
2:53 PM 79.0 °F - 53.1 °F 40% 29.86 in 10.0 mi West 11.5 mph - N/A   Clear
3:53 PM 78.1 °F - 53.1 °F 42% 29.84 in 10.0 mi West 10.4 mph - N/A   Clear
4:53 PM 77.0 °F - 53.1 °F 43% 29.83 in 10.0 mi West 10.4 mph - N/A   Clear
5:53 PM 73.9 °F - 53.1 °F 48% 29.83 in 10.0 mi West 8.1 mph - N/A   Clear
6:53 PM 68.0 °F - 53.1 °F 59% 29.84 in 10.0 mi West 9.2 mph - N/A   Clear
7:53 PM 62.1 °F - 53.1 °F 72% 29.86 in 10.0 mi West 8.1 mph - N/A   Clear
8:53 PM 55.9 °F - 51.1 °F 84% 29.86 in 10.0 mi West 5.8 mph - N/A   Clear
9:53 PM 53.1 °F - 50.0 °F 89% 29.88 in 9.0 mi West 5.8 mph - N/A   Clear
10:41 PM 51.8 °F - 48.2 °F 88% 29.92 in 7.0 mi West 5.8 mph - N/A   Mostly Cloudy
10:51 PM 53.6 °F - 51.8 °F 94% 29.92 in 7.0 mi West 4.6 mph - N/A   Mostly Cloudy
10:53 PM 54.0 °F - 52.0 °F 93% 29.89 in 7.0 mi West 4.6 mph - N/A   Mostly Cloudy
11:25 PM 55.4 °F - 53.6 °F 94% 29.92 in 6.0 mi Calm Calm - N/A   Overcast
11:53 PM 55.0 °F - 52.0 °F 89% 29.88 in 6.0 mi Calm Calm - N/A   Overcast